Location: Unspecified
(0.0000°N, 0.0000°E)
Time: 12:02:59
(UTC+00:00)

YUBILEINY - Visible Passes

Search period start: 22 May 2019 00:00
Search period end: 01 June 2019 00:00
Orbit: 1478 x 1508 km, 82.5° (Epoch: 22 May)

Date Brightness Start Highest point End Pass type
(mag) Time Alt. Az. Time Alt. Az. Time Alt. Az.
22 May ? 18:09:52 10° S 18:18:29 57° E 18:27:04 10° NNE visible
22 May ? 20:09:40 10° SW 20:14:52 17° W 20:20:06 10° NW visible
23 May ? 04:54:15 10° ENE 04:55:31 10° E 04:56:46 10° E visible
23 May ? 19:17:23 10° SSW 19:25:27 41° W 19:33:32 10° NNW visible
24 May ? 18:27:10 10° S 18:36:02 86° W 18:44:53 10° N visible
25 May ? 05:06:48 10° NE 05:13:05 22° E 05:19:19 10° SE visible
25 May ? 19:36:36 10° SW 19:43:00 23° W 19:49:26 10° NW visible
26 May ? 18:45:08 10° SSW 18:53:35 51° W 19:02:03 10° NNW visible
27 May ? 05:22:41 10° NNE 05:30:37 40° E 05:38:32 10° SSE visible
27 May ? 19:58:48 10° W 20:00:34 11° W 20:02:20 10° WNW visible
28 May ? 04:36:09 10° NE 04:41:12 17° E 04:46:13 10° ESE visible
28 May ? 19:03:53 10° SW 19:11:09 29° W 19:18:25 10° NNW visible
29 May ? 18:13:01 10° SSW 18:21:44 64° W 18:30:26 10° N visible
30 May ? 04:51:21 10° NNE 04:58:45 32° E 05:06:07 10° SE visible
30 May ? 19:24:08 10° WSW 19:28:42 15° W 19:33:17 10° NW visible
31 May ? 04:06:19 10° ENE 04:09:19 12° E 04:12:17 10° ESE visible
31 May ? 18:31:25 10° SSW 18:39:17 37° W 18:47:10 10° NNW visible
